Notices

What's New in latest Release from April 7th, 2021:

- Updated Glossary, including Speed of Maximum Gust, and Total Hourly Precipitation

- Updated national and regional climate services offices contacts and prices information

- Addition of station inventory lists for 1981-2010, 1971-2000, and 1961-1990 Normals.

If you haven't already, please take our survey and provide feedback about our website: https://eccc.sondage-survey.ca/f/LanguageSelection.aspx?s=442ca660-fcf1-47c0-95a9-59707d6fd709

Hourly Data Report for March 23, 2017

MIRAMICHI RCS
NEW BRUNSWICK

47°00'34.000" N
65°27'54.000" W
33.00 m
8100989
71744
ACQ

Download Data

Hourly Data (March 2017)
Hourly Data Report for March 23, 2017
TIME
LST
Temp Definition
°C
Dew Point Definition
°C
Rel Hum Definition
%
Precip. Amount Definition
mm

Wind Dir Definition
10's deg

Wind Spd Definition
km/h
Visibility Definition
km
Stn Press Definition
kPa
Hmdx Definition


Wind Chill Definition


Weather Definition


00:00 -9.7 -14.4 69 0.0 33 19   100.79   -17 LegendNANA
01:00 -10.2 -15.4 66 0.0 33 19   100.86   -18 LegendNANA
02:00 -10.9 -17.8 57 0.0 32 21   100.90   -19 LegendNANA
03:00 -11.7 -19.0 55 0.0 32 17   100.96   -19 LegendNANA
04:00 -12.4 -20.4 51 0.2 31 20   101.03   -21 LegendNANA
05:00 -13.1 -21.0 51 0.0 31 19   101.14   -22 LegendNANA
06:00 -13.9 -21.6 52 0.0 31 19   101.26   -23 LegendNANA
07:00 -14.5 -21.9 53 0.0 30 14   101.37   -22 LegendNANA
08:00 -13.5 -22.1 48 0.0 32 19   101.45   -22 LegendNANA
09:00 -12.4 -22.1 44 0.0 33 20   101.48   -21 LegendNANA
10:00 -11.0 -22.0 40 0.0 31 21   101.49   -19 LegendNANA
11:00 -9.5 -21.9 36 0.0 32 19   101.50   -17 LegendNANA
12:00 -8.0 -21.9 32 0.0 33 17   101.49   -15 LegendNANA
13:00 -6.4 -21.5 29 0.0 33 17   101.48   -13 LegendNANA
14:00 -5.5 -22.6 25 0.0 31 22   101.46   -13 LegendNANA
15:00 -4.9 -21.9 25 0.0 31 20   101.48   -11 LegendNANA
16:00 -4.0 -22.1 23 0.0 32 16   101.54   -10 LegendNANA
17:00 -4.7 -20.0 29 0.0 30 22   101.63   -12 LegendNANA
18:00 -5.5 -19.4 33 0.0 30 23   101.73   -13 LegendNANA
19:00 -6.6 -19.5 35 0.0 31 14   101.85   -12 LegendNANA
20:00 -7.5 -19.3 38 0.0 30 13   102.01   -13 LegendNANA
21:00 -8.8 -18.5 46 0.0 29 10   102.09   -14 LegendNANA
22:00 -9.0 -18.7 45 0.0 29 12   102.18   -15 LegendNANA
23:00 -10.0 -18.5 50 0.0 26 7   102.21   -14 LegendNANA

Notes on Data Quality.

Legend

  • E = Estimated
  • M = Missing
  • NA = Not Available*
  • [empty] = Indicates an unobserved value
Date modified: